Raton, NM

12:14 AM MDT on August 20, 2017 (GMT -0600)
Raton Municipal-Crews

Weather History for KRTN - August, 2014

Change the Weather History Date:

Sunday, August 31, 2014

  Actual Average (KTAD) Record (KTAD)
Temperature  
Mean Temperature 70 °F -  
Max Temperature 90 °F 85 °F 98 °F (1985)
Min Temperature 52 °F 56 °F 46 °F (1967)
Cooling Degree Days 6    
Growing Degree Days 20 (Base 50)    
Moisture  
Dew Point 36 °F    
Average Humidity 33    
Maximum Humidity 63    
Minimum Humidity 12    
Precipitation  
Precipitation 0.00 in - - ()
Sea Level Pressure  
Sea Level Pressure 29.75 in    
Wind  
Wind Speed 8 mph (West)    
Max Wind Speed 25 mph    
Max Gust Speed 34 mph    
Visibility 10 miles    
Events      
Averages and records for this station are not official NWS values.
T = Trace of Precipitation, MM = Missing Value Source: NWS Daily Summary

Daily Weather History Graph

Daily Weather History Graph

Search for Another Location

Airport or City:

Trip Planner

Search our weather history database for the weather conditions in past years. The results will help you decide how hot, cold, wet, or windy it might be!

Date:

Astronomy

Aug. 31, 2014 Rise Set
Actual Time 6:28 AM MDT 7:27 PM MDT
Civil Twilight 6:01 AM MDT 7:54 PM MDT
Nautical Twilight 5:30 AM MDT 8:25 PM MDT
Astronomical Twilight 4:57 AM MDT 8:57 PM MDT
Moon 12:07 PM MDT (8/31) 10:54 PM MDT (8/31)
Length of Visible Light 13h 52m
Length of Day
12h 59m
Waxing Crescent, 32% of the Moon is Illuminated
Aug 31
Waxing Crescent
Sep 2
First Quarter
Sep 8
Full
Sep 15
Last Quarter
Sep 24
New

Hourly Weather History & Observations

Time (MDT) Temp. Dew Point Humidity Pressure Visibility Wind Dir Wind Speed Gust Speed Precip Events Conditions
12:53 AM 59.0 °F 42.1 °F 53% 29.81 in 10.0 mi North 3.5 mph - N/A   Clear
1:53 AM 57.0 °F 39.9 °F 53% 29.80 in 10.0 mi WNW 4.6 mph - N/A   Clear
2:53 AM 55.9 °F 41.0 °F 57% 29.79 in 10.0 mi NE 5.8 mph - N/A   Clear
3:53 AM 55.0 °F 39.0 °F 55% 29.79 in 10.0 mi WNW 6.9 mph - N/A   Clear
4:53 AM 57.9 °F 39.0 °F 49% 29.78 in 10.0 mi Calm Calm - N/A   Clear
5:53 AM 52.0 °F 39.9 °F 63% 29.81 in 10.0 mi NE 5.8 mph - N/A   Clear
6:53 AM 52.0 °F 39.9 °F 63% 29.84 in 10.0 mi Calm Calm - N/A   Clear
7:53 AM 60.1 °F 43.0 °F 53% 29.83 in 10.0 mi Calm Calm - N/A   Clear
8:53 AM 64.9 °F 43.0 °F 45% 29.81 in 10.0 mi South 4.6 mph - N/A   Clear
9:53 AM 70.0 °F 43.0 °F 38% 29.80 in 10.0 mi SE 6.9 mph - N/A   Clear
10:53 AM 80.1 °F 39.9 °F 24% 29.75 in 10.0 mi SSW 17.3 mph - N/A   Clear
11:53 AM 86.0 °F 36.0 °F 17% 29.72 in 10.0 mi SW 18.4 mph 26.5 mph N/A   Clear
12:53 PM 84.9 °F 30.9 °F 14% 29.72 in 10.0 mi West 20.7 mph 31.1 mph N/A   Partly Cloudy
1:53 PM 88.0 °F 34.0 °F 15% 29.70 in 10.0 mi West 21.9 mph 34.5 mph N/A   Clear
2:53 PM 89.1 °F 30.9 °F 12% 29.68 in 10.0 mi West 23.0 mph 32.2 mph N/A   Clear
3:53 PM 87.1 °F 30.9 °F 13% 29.68 in 10.0 mi West 17.3 mph 26.5 mph N/A   Partly Cloudy
4:53 PM 88.0 °F 28.9 °F 12% 29.66 in 10.0 mi WSW 25.3 mph 33.4 mph N/A   Clear
5:53 PM 86.0 °F 30.0 °F 13% 29.69 in 10.0 mi West 17.3 mph 26.5 mph N/A   Clear
6:53 PM 82.0 °F 30.0 °F 15% 29.71 in 10.0 mi West 12.7 mph - N/A   Clear
7:53 PM 75.0 °F 30.9 °F 20% 29.73 in 10.0 mi West 9.2 mph - N/A   Clear
8:53 PM 68.0 °F 33.1 °F 27% 29.75 in 10.0 mi WNW 8.1 mph - N/A   Clear
9:53 PM 73.9 °F 30.0 °F 20% 29.74 in 10.0 mi Calm Calm - N/A   Clear
10:53 PM 63.0 °F 33.1 °F 33% 29.75 in 10.0 mi West 5.8 mph - N/A   Clear
11:53 PM 61.0 °F 33.1 °F 35% 29.73 in 10.0 mi North 10.4 mph - N/A   Clear